Location: Berlin
(39.7589°N, 89.9032°W)
Time: 06:05:02
(UTC+00:00)

Daily predictions for brighter satellites

Satellite Brightness Start Highest point End
(mag) Time Altitude Azimuth Time Altitude Azimuth Time Altitude Azimuth
CBERS-1 4.0 12:01:30 10° NNE 12:06:38 82° WNW 12:11:44 10° SSW
Cosmos 1025 Rocket 3.2 12:05:12 10° SSW 12:09:25 51° W 12:13:41 10° N
Cosmos 2297 3.9 12:08:37 10° NNW 12:14:06 54° WSW 12:19:32 10° S
Cosmos 1674 Rocket 4.3 12:11:33 10° SW 12:15:29 31° WNW 12:19:26 10° NNW
Lacrosse 5 rocket 2.7 12:13:27 10° NNW 12:16:13 23° NE 12:18:56 10° E
Cosmos 1943 3.3 12:11:03 10° SW 12:16:33 55° WNW 12:22:03 10° NNE
Cosmos 1484 Rocket 3.2 12:13:29 10° N 12:16:41 33° WNW 12:19:51 10° SW
Cosmos 1400 Rocket 3.5 12:15:44 10° NNW 12:18:53 27° W 12:22:01 10° SSW
Cosmos 2369 Rocket 2.5 12:13:32 10° NW 12:18:58 48° WSW 12:24:23 10° S
Cosmos 1603 4.0 12:14:06 10° SSW 12:19:50 77° ESE 12:25:34 10° NNE
USA 229 DEB 4.2 12:15:30 10° WSW 12:20:45 31° NW 12:26:33 10° NNE
USA 229 4.2 12:15:43 10° WSW 12:20:58 31° NW 12:26:46 10° NNE
USA 267 4.4 12:16:13 10° NNE 12:21:20 25° NNW 12:26:26 10° WNW
Cosmos 2061 Rocket 4.1 23:03:44 10° S 23:09:57 62° E 23:16:07 10° NNE
Cosmos 1782 Rocket 3.6 23:05:50 10° S 23:10:14 69° E 23:14:39 10° NNE
SL-4 R/B 2.0 23:08:20 10° WNW 23:11:44 65° SW 23:15:18 10° SE
Landsat 7 4.1 23:09:41 10° SE 23:14:02 41° ENE 23:18:25 10° N
Cosmos 1725 Rocket 4.4 23:08:50 10° SSW 23:15:04 73° W 23:21:23 10° N
Cosmos 2233 Rocket 4.0 23:10:02 10° S 23:16:18 78° E 23:22:38 10° N
Cosmos 1300 Rocket 3.6 23:13:02 10° S 23:17:25 88° W 23:21:50 10° N
CORIOLIS 4.1 23:15:00 10° SSE 23:20:21 75° ENE 23:25:42 10° N
SPOT 1/Viking Rocket 4.5 23:19:18 10° ESE 23:23:27 25° ENE 23:27:36 10° NNE
Cosmos 407 Rocket 3.7 23:19:48 10° S 23:24:48 49° ESE 23:29:46 10° NNE
ISS -3.8 23:21:42 10° SW 23:25:02 84° NW 23:28:15 11° NE
CZ-2D R/B 2.8 23:23:15 10° SSE 23:26:19 51° ENE 23:29:24 10° N
SL-12 R/B(2) 4.3 23:19:28 10° SSW 23:27:02 69° ESE 23:36:08 10° NE
OAO 3 Rocket 4.2 23:24:48 10° SW 23:29:02 35° SSE 23:33:13 10° E
Cosmos 2082 Rocket 3.5 23:25:19 10° N 23:29:11 19° NE 23:33:02 10° E
Cosmos 1943 Rocket 2.4 23:23:49 10° S 23:29:11 49° ESE 23:34:34 10° NE
Cosmos 2278 Rocket 2.5 23:24:13 10° S 23:29:35 47° ESE 23:34:58 10° NE
Aureole 3 Rocket 3.3 23:28:57 10° SSE 23:31:36 25° E 23:34:10 10° NE
IRS-1C 4.1 23:26:32 10° SSE 23:31:49 73° ENE 23:37:09 10° N
Cosmos 1975 Rocket 3.0 23:28:49 10° N 23:33:07 60° E 23:37:25 10° SSE
ATLAS 5 CENTAUR R/B 1.9 23:30:59 10° NNW 23:35:31 61° NE 23:41:08 10° SE
COSMO-SKYMED 1 3.4 23:36:41 10° NE 23:40:09 26° E 23:43:36 10° SSE
MOS 1 Rocket 3.4 23:36:11 10° SE 23:40:13 43° ENE 23:44:23 10° N
SAR-Lupe-1 4.0 23:36:57 10° SSE 23:40:31 88° W 23:44:05 10° NNW
USA 215 3.3 23:35:59 10° SE 23:42:31 86° NE 23:49:05 10° NW
SKYMED 2 3.9 23:40:24 10° NNE 23:44:34 44° E 23:48:42 10° S
Helios 1A Rocket 3.4 23:43:03 16° NE 23:45:03 27° E 23:47:57 10° SSE
Okean 1 Rocket 4.4 23:43:18 10° SE 23:46:16 18° E 23:46:31 18° E
RESURS DK-1 2.9 23:51:01 10° N 23:54:42 34° ENE 23:57:09 17° ESE
